RH
76 83 71 87 78 48 27 8 6 11 8 19 43 44 23 30 43 55 76 77 98 100 96 69 44 40 42 42 29 14 15 20 27 55 92 96 89 80 92 97 75 65 52 40
100 97 97 93 100 72 39 20 5 9 12 10 24 31 30 28 55 59 78 88 99 100 95 83 61 47 46 38 26 18 21 21 23 40 70 82 75 77 94 96 80 56 54 42
100 100 100 100 100 99 45 33 8 6 16 9 12 30 32 27 44 62 84 91 100 100 86 88 73 50 50 34 28 30 36 27 26 26 37 79 77 66 80 96 74 58 46 39
100 100 100 100 100 100 80 43 22 4 10 11 10 21 26 39 43 64 80 93 98 88 98 99 79 70 49 44 38 50 51 33 32 37 48 65 61 62 68 73 60 44 46 31
100 100 100 100 100 100 100 55 23 4 6 12 10 17 19 25 48 60 69 86 100 63 94 100 91 85 62 51 59 84 72 40 37 36 42 44 43 47 43 42 58 65 27 15
100 100 100 100 100 100 90 30 23 5 5 10 11 13 17 19 46 52 71 100 98 42 32 99 97 85 71 57 56 75 94 58 46 40 47 50 36 44 55 76 53 28 15 17
80 100 100 100 100 94 73 51 34 6 4 8 12 12 16 20 37 39 77 96 99 76 85 99 99 90 71 66 68 73 86 80 82 62 50 40 34 79 79 58 24 15 20 13
78 100 100 100 100 100 92 74 38 7 4 6 10 10 13 14 24 32 46 92 100 96 95 89 100 82 72 63 67 78 67 55 62 68 57 38 24 47 42 32 15 19 59 57
83 100 100 100 100 96 100 65 36 15 4 4 10 10 10 11 17 22 30 92 100 98 98 96 82 99 78 69 70 86 82 94 89 63 58 37 33 34 33 20 12 31 61 65
92 100 100 100 100 100 100 58 33 27 4 4 8 11 10 10 12 14 13 41 100 99 98 91 66 64 65 78 83 66 74 81 68 35 36 39 42 43 31 16 12 13 19 23
100 100 98 100 100 100 95 94 40 19 4 3 5 9 10 9 10 10 11 21 85 92 91 89 62 55 97 99 91 84 61 66 63 38 47 53 50 49 28 13 10 15 20 25
100 97 100 100 100 93 100 98 37 13 7 29 5 8 11 10 9 8 9 31 53 75 88 73 68 65 93 100 80 80 82 74 76 64 36 47 41 28 23 10 12 16 18 24
99 99 100 100 100 98 74 86 35 13 5 14 40 7 8 11 9 8 8 14 77 79 77 70 60 60 90 95 75 71 72 77 67 71 47 36 27 33 13 13 13 13 14 14
100 100 100 100 100 100 100 99 40 24 16 11 17 65 30 10 10 8 7 8 38 62 65 72 64 60 61 47 86 80 64 70 88 88 38 24 29 26 12 13 14 15 18 19
100 100 100 100 100 100 94 57 28 16 34 70 56 99 100 65 11 9 7 7 8 29 37 50 57 49 42 42 57 72 62 62 76 89 42 33 35 24 13 15 17 17 22 24
100 100 100 100 92 56 49 39 14 22 42 100 87 46 83 60 70 48 8 7 6 8 10 13 22 27 23 26 39 59 78 80 90 96 73 50 56 41 19 19 24 31 29 29
100 100 100 83 53 35 28 15 45 87 87 81 100 100 82 47 39 60 84 24 7 7 8 9 13 17 24 46 33 83 59 84 91 96 99 80 78 46 27 26 28 27 28 27
99 100 84 70 52 36 27 17 98 100 100 59 64 75 93 58 48 62 70 75 40 14 7 6 7 9 33 47 48 38 64 93 95 95 100 94 100 72 36 40 44 39 37 35
98 88 76 66 42 29 41 67 82 91 77 100 76 44 45 49 50 56 72 69 68 52 11 7 10 7 10 24 54 65 80 100 98 99 95 99 100 99 98 94 100 72 51 54
73 73 74 63 47 62 87 100 100 85 37 100 100 91 44 28 34 64 75 62 60 52 41 17 12 11 9 9 40 64 86 98 98 98 100 98 93 92 89 77 68 62 62 75
58 40 34 36 36 42 62 66 48 57 55 70 63 39 68 27 12 86 92 95 85 64 46 33 22 16 21 28 36 51 82 100 96 100 100 96 99 100 94 100 100 94 99 99
32 30 29 51 78 82 99 100 100 78 47 58 29 22 46 43 82 88 72 100 94 75 54 30 20 32 50 57 67 78 80 73 88 98 100 100 100 100 100 100 100 100 99 82
25 57 78 70 97 100 97 100 100 92 79 46 8 24 90 75 62 82 74 95 72 72 72 80 73 78 84 91 84 85 100 100 93 100 99 99 96 98 98 97 89 81 75 78
89 100 100 91 100 77 89 100 100 84 50 32 17 98 90 90 100 98 98 80 94 100 100 94 99 100 98 100 100 98 99 96 96 89 82 86 86 83 84 86 91 96 100 100
100 100 100 100 100 85 100 94 66 65 56 55 64 62 81 100 100 98 80 80 91 95 88 67 99 100 100 100 100 89 79 88 91 89 92 96 96 100 100 100 100 100 100 100
100 100 100 100 100 100 99 100 100 100 100 96 90 100 100 100 100 100 98 92 96 100 100 100 96 97 99 98 100 100 100 100 99 100 100 100 100 100 100 100 100 100 100 100
100 100 100 100 100 100 100 98 94 91 91 85 82 88 88 81 83 100 98 100 100 100 100 100 100 100 100 100 100 100 100 100 100 100 100 100 100 100 100 100 100 100 100 100
Wind_Speed
68 63 59 61 65 64 58 82 86 80 81 81 75 63 48 49 53 43 48 47 45 46 44 36 34 30 21 19 21 21 21 24 28 30 30 28 31 30 30 32 27 28 27 22
68 62 58 59 66 68 58 68 86 83 84 83 74 62 56 55 53 42 47 49 44 49 41 39 34 31 24 25 22 20 20 23 26 32 34 35 32 30 31 27 22 27 33 27
61 62 59 58 60 68 63 58 84 90 85 78 70 70 62 58 54 45 49 46 47 51 40 40 35 28 26 25 22 22 22 22 25 25 28 28 31 27 27 29 30 31 29 26
57 61 61 61 60 65 64 60 75 89 90 85 74 70 64 65 55 47 52 50 53 40 42 39 34 28 27 26 23 23 24 22 21 21 25 33 31 30 31 33 32 33 29 27
61 61 63 62 62 62 63 56 63 86 84 76 77 75 70 65 56 48 52 51 48 41 40 41 34 32 30 31 28 29 27 22 22 23 24 27 27 29 31 29 27 31 28 25
66 65 61 63 63 63 64 48 50 78 84 81 80 73 69 66 59 51 50 49 42 35 37 37 37 37 34 33 31 31 31 25 25 24 23 25 29 25 26 24 24 25 28 25
68 68 56 62 61 61 56 46 44 77 85 82 75 72 70 67 56 50 51 49 51 36 37 41 41 38 36 35 33 32 32 29 27 28 27 31 19 19 21 21 22 25 26 29
63 68 61 59 56 56 55 50 44 70 81 77 76 76 71 66 58 55 50 49 47 43 41 44 44 42 40 38 35 34 29 28 31 30 28 24 21 20 19 25 19 26 25 27
58 66 62 56 51 53 45 40 43 61 77 79 76 76 73 67 61 56 51 47 47 47 47 44 48 45 44 41 39 35 31 30 30 35 33 26 16 20 22 23 20 20 26 27
60 63 57 52 50 47 41 34 43 62 74 76 78 76 73 67 64 58 54 49 48 45 48 46 44 48 46 42 39 34 31 30 30 31 31 21 20 19 21 25 24 25 27 28
62 61 53 49 48 41 38 31 34 54 74 75 78 76 74 68 62 56 52 51 49 46 51 53 50 50 46 47 38 32 34 29 28 26 29 27 21 23 24 25 24 25 24 23
51 49 49 48 43 37 34 32 37 54 68 60 75 73 72 66 62 57 50 48 48 46 47 52 53 51 49 46 41 33 31 28 26 27 28 30 27 24 23 23 23 22 21 20
53 48 46 43 38 35 31 26 36 52 62 68 62 73 72 67 59 53 50 49 51 53 49 46 45 46 46 44 36 35 34 31 32 29 27 25 27 25 24 21 21 19 16 14
42 43 43 38 35 33 31 32 37 51 63 67 63 37 50 65 55 51 48 49 51 54 53 49 46 44 40 41 41 37 37 35 29 27 27 27 28 26 26 23 22 20 18 17
38 39 38 35 34 32 32 31 41 58 58 48 58 39 27 36 56 47 46 47 52 55 56 55 49 44 40 40 44 39 38 36 31 26 24 30 28 30 26 24 25 25 25 24
32 31 31 28 28 27 27 27 51 63 59 40 35 58 45 33 28 40 49 47 47 51 53 54 55 43 37 42 43 40 37 34 34 35 31 31 30 30 28 28 28 29 31 31
30 28 27 27 26 21 17 33 62 48 46 53 34 29 29 39 39 39 32 44 47 49 49 50 49 43 41 37 41 38 40 37 39 33 34 34 33 31 32 32 33 34 36 37
28 27 28 25 22 16 20 48 59 46 43 45 59 42 29 35 36 36 37 31 41 45 47 43 41 41 36 39 37 38 38 39 39 38 29 37 38 38 36 35 37 40 41 43
28 28 25 23 20 18 30 38 44 44 57 37 34 39 45 32 35 34 34 33 29 36 42 40 36 41 45 40 35 39 41 42 42 38 33 30 41 43 44 45 42 44 46 47
24 22 21 24 23 33 35 29 27 29 48 39 35 30 33 40 34 30 27 30 29 30 33 37 37 34 40 44 41 41 44 46 43 37 33 37 37 40 41 42 45 47 50 52
26 24 24 23 20 28 26 22 21 36 47 39 33 28 21 27 33 27 22 26 26 25 26 33 33 37 36 38 43 43 44 44 43 38 42 43 46 45 45 46 45 48 49 48
25 23 28 43 44 38 32 27 19 17 33 31 34 32 27 27 26 31 32 21 30 34 31 30 33 34 34 37 39 39 45 48 47 49 50 41 38 41 40 46 50 47 44 44
38 44 52 40 28 26 25 18 21 22 26 27 31 26 25 26 32 31 30 31 24 34 36 33 33 35 35 36 37 46 33 50 53 45 33 35 40 43 44 44 44 44 44 45
55 41 35 37 24 22 24 17 15 14 22 31 37 24 18 23 15 27 31 28 29 20 28 32 37 29 22 24 33 43 36 32 34 35 35 38 40 40 40 41 40 42 45 49
36 21 6 15 21 25 20 20 17 18 16 17 17 14 12 17 15 19 19 22 26 27 27 22 28 31 30 33 37 33 28 29 31 32 32 33 36 36 36 38 45 49 51 53
24 35 31 28 25 29 22 20 18 19 18 16 15 13 13 20 22 24 18 20 25 31 29 27 27 27 19 22 22 23 28 30 31 32 33 36 39 41 43 48 50 52 55 58
27 23 26 24 22 20 19 17 14 13 13 11 9 10 10 12 16 23 24 21 17 12 14 20 24 18 16 19 21 25 29 32 33 36 39 43 47 50 51 51 51 52 54 56
Wind_Direction
241 239 234 230 228 228 234 227 222 213 213 212 215 212 207 216 226 230 226 227 215 210 203 213 216 220 217 224 227 235 237 232 225 223 220 221 226 230 239 241 250 257 270 283
232 229 226 225 224 224 230 229 221 215 213 212 213 207 207 214 222 224 224 223 212 204 197 208 214 219 216 219 215 227 235 238 236 226 226 224 230 233 239 250 255 256 263 285
228 218 219 222 223 223 224 228 218 218 214 215 212 213 205 211 217 214 216 214 206 201 202 212 216 216 216 222 212 218 228 235 240 241 241 239 244 251 252 249 254 263 268 284
215 217 213 215 221 220 222 226 216 218 212 210 209 210 206 215 213 209 219 212 202 197 204 207 208 212 216 218 215 220 227 240 247 241 232 234 241 242 246 245 255 262 276 278
208 214 211 212 217 215 222 227 218 212 216 212 211 210 201 207 213 210 217 216 195 206 205 208 208 206 209 214 213 220 230 239 244 240 235 235 235 245 250 249 263 273 274 268
205 208 210 208 213 210 218 221 218 209 213 209 212 208 205 207 207 205 212 214 193 213 206 212 210 206 210 215 215 219 224 239 243 247 244 235 238 244 245 256 264 269 269 273
202 199 200 208 211 210 217 222 221 206 211 210 209 209 211 215 210 209 210 209 204 201 209 207 214 213 211 215 218 223 228 230 241 247 244 242 251 247 252 263 268 270 279 277
197 193 195 205 206 207 213 215 219 200 210 207 208 211 211 214 213 211 211 209 209 206 207 210 207 222 219 219 217 222 231 239 238 240 248 260 249 251 262 261 270 276 290 277
192 188 192 199 200 206 209 213 203 196 205 207 207 213 214 212 209 210 210 217 215 209 209 210 212 211 226 223 224 225 226 234 243 248 251 251 258 257 264 279 290 287 270 272
183 186 191 193 196 202 201 205 202 195 202 207 208 210 214 212 210 209 209 212 221 215 214 209 216 219 223 231 234 230 235 242 248 252 254 248 255 266 278 283 291 274 272 272
175 181 184 190 193 194 197 201 202 197 201 206 209 212 215 212 212 212 209 209 217 218 215 212 212 218 218 226 234 234 240 245 253 256 250 250 275 270 282 286 286 284 278 273
171 179 184 187 189 193 189 203 204 194 198 197 211 210 215 211 210 214 211 210 217 230 220 216 217 219 215 225 238 238 243 247 258 259 262 259 264 271 281 280 283 281 279 275
173 177 180 181 188 193 195 200 199 189 195 198 206 212 215 215 211 211 208 207 211 221 224 225 229 227 221 228 235 244 247 253 258 262 256 253 259 268 274 272 272 271 264 256
170 173 174 179 189 198 198 206 208 191 190 200 203 215 226 220 211 209 207 207 211 217 225 229 230 229 227 231 231 240 251 253 254 258 255 250 256 261 260 261 261 259 257 261
164 169 177 185 189 194 203 212 206 184 180 194 187 171 176 211 213 210 210 209 213 218 222 231 234 233 232 231 232 236 246 254 258 258 248 250 252 258 264 258 257 258 262 268
161 168 170 175 182 192 203 205 188 175 178 169 194 206 209 201 200 214 213 214 218 222 225 229 235 235 240 236 234 236 245 253 257 259 242 246 252 257 256 256 258 262 267 273
157 158 162 168 175 185 196 187 172 165 185 173 157 176 189 204 206 207 213 219 219 225 228 232 236 236 237 244 236 238 248 253 256 264 251 249 249 252 252 254 260 266 270 274
147 149 150 156 166 178 179 170 163 179 171 188 190 183 175 186 193 203 208 219 225 228 231 235 239 237 240 242 241 237 247 256 260 261 263 255 251 249 254 259 264 268 272 275
151 154 159 156 157 155 150 154 174 189 175 174 191 206 208 197 200 204 215 221 234 232 231 235 242 237 237 245 246 243 247 252 256 262 265 266 255 253 256 265 266 267 272 277
145 152 150 150 154 153 145 152 167 181 183 180 177 194 200 201 201 205 220 225 235 242 239 239 241 242 242 244 247 247 250 255 260 266 264 268 264 260 260 261 266 272 277 280
147 143 141 145 153 145 136 129 163 176 175 180 182 184 180 202 204 200 219 226 238 243 242 235 239 242 242 241 245 250 252 254 260 257 263 264 270 265 261 265 272 273 273 280
127 133 134 134 125 122 132 126 128 162 179 185 187 189 186 190 197 210 219 238 234 241 242 236 244 244 244 243 246 249 256 253 252 259 263 268 263 258 254 259 268 278 282 282
134 129 135 125 115 113 105 103 133 175 186 185 185 180 186 204 218 221 221 227 249 245 247 245 246 246 250 250 250 249 268 253 250 256 264 263 267 272 273 274 274 277 279 281
131 120 121 133 128 130 131 115 114 131 188 177 179 183 180 191 223 208 226 244 251 274 257 261 248 250 252 262 255 249 251 255 253 261 264 263 263 267 272 276 280 282 280 282
129 117 83 138 115 129 114 127 116 138 154 180 211 226 215 219 206 214 252 260 253 254 258 270 260 244 235 241 248 253 267 272 269 266 266 267 270 272 276 275 272 271 273 274
85 92 92 106 120 130 136 134 135 144 138 160 173 187 219 218 228 226 244 242 242 241 244 252 260 268 275 268 257 261 266 267 266 265 265 268 270 272 273 268 267 270 272 276
108 100 95 98 103 108 110 126 127 134 129 132 157 183 195 200 210 213 231 226 218 228 248 251 255 251 248 264 258 258 263 266 269 266 263 259 260 262 269 274 276 276 278 281